TimeMST,TemperatureF,Dew PointF,Humidity,Sea Level PressureIn,VisibilityMPH,Wind Direction,Wind SpeedMPH,Gust SpeedMPH,PrecipitationIn,Events,Conditions,WindDirDegrees,DateUTC
12:53 AM,10.9,7.0,84,29.88,10.0,Calm,Calm,-,N/A,,Clear,0,2013-02-23 07:53:00
1:53 AM,12.9,7.0,77,29.85,10.0,SE,3.5,-,N/A,,Clear,130,2013-02-23 08:53:00
2:53 AM,12.9,8.1,81,29.82,10.0,Calm,Calm,-,N/A,,Scattered Clouds,0,2013-02-23 09:53:00
3:53 AM,12.9,7.0,77,29.81,10.0,SE,4.6,-,N/A,,Partly Cloudy,130,2013-02-23 10:53:00
4:53 AM,16.0,9.0,74,29.78,10.0,South,3.5,-,N/A,,Overcast,190,2013-02-23 11:53:00
5:53 AM,15.1,10.0,80,29.80,10.0,ENE,3.5,-,N/A,,Overcast,70,2013-02-23 12:53:00
6:53 AM,16.0,10.0,77,29.79,10.0,Calm,Calm,-,N/A,,Overcast,0,2013-02-23 13:53:00
7:53 AM,17.1,12.0,81,29.80,10.0,Calm,Calm,-,N/A,,Overcast,0,2013-02-23 14:53:00
8:53 AM,19.9,12.9,74,29.79,10.0,Calm,Calm,-,N/A,,Overcast,0,2013-02-23 15:53:00
9:53 AM,21.9,14.0,72,29.80,10.0,NNW,4.6,-,N/A,,Overcast,330,2013-02-23 16:53:00
10:53 AM,24.1,14.0,65,29.79,10.0,ESE,3.5,-,N/A,,Overcast,110,2013-02-23 17:53:00
11:53 AM,27.0,16.0,63,29.82,10.0,NW,3.5,-,N/A,,Overcast,320,2013-02-23 18:53:00
12:53 PM,28.0,19.0,69,29.81,7.0,ESE,4.6,-,N/A,,Overcast,110,2013-02-23 19:53:00
1:08 PM,28.4,21.2,74,29.65,2.5,East,8.1,-,0.00,Snow,Light Snow,100,2013-02-23 20:08:00
1:16 PM,26.6,23.0,86,29.65,1.5,ESE,9.2,-,0.00,Snow,Light Snow,110,2013-02-23 20:16:00
1:23 PM,28.4,24.8,86,29.64,1.2,ESE,8.1,-,0.00,Snow,Light Snow,110,2013-02-23 20:23:00
1:29 PM,28.4,24.8,86,29.64,2.0,ESE,8.1,-,0.00,Snow,Light Snow,110,2013-02-23 20:29:00
1:40 PM,28.4,24.8,86,29.64,4.0,East,8.1,-,0.00,Snow,Light Snow,90,2013-02-23 20:40:00
1:53 PM,28.9,25.0,85,29.79,9.0,SE,5.8,-,0.00,,Overcast,130,2013-02-23 20:53:00
2:53 PM,30.9,25.0,79,29.79,10.0,West,4.6,-,N/A,,Overcast,280,2013-02-23 21:53:00
3:35 PM,28.4,24.8,86,29.66,1.8,NW,9.2,-,0.00,Snow,Light Snow,310,2013-02-23 22:35:00
3:53 PM,28.9,26.1,89,29.81,1.2,NW,9.2,-,0.00,Snow,Light Snow,310,2013-02-23 22:53:00
4:02 PM,28.4,26.6,93,29.67,1.2,NW,9.2,-,0.00,Snow,Light Snow,320,2013-02-23 23:02:00
4:13 PM,28.4,26.6,93,29.68,1.0,NW,9.2,-,0.00,Snow,Light Snow,310,2013-02-23 23:13:00
4:34 PM,30.2,26.6,86,29.69,0.8,WNW,10.4,-,0.00,Snow,Light Snow,300,2013-02-23 23:34:00
4:51 PM,28.4,26.6,93,29.69,1.2,WNW,8.1,-,0.00,Snow,Light Snow,290,2013-02-23 23:51:00
4:53 PM,28.9,27.0,92,29.82,1.5,WNW,8.1,-,0.00,Snow,Light Snow,300,2013-02-23 23:53:00
5:00 PM,28.4,26.6,93,29.69,3.0,WNW,11.5,-,0.00,Snow,Light Snow,290,2013-02-24 00:00:00
5:10 PM,30.2,26.6,86,29.69,1.8,WNW,11.5,-,0.00,Snow,Light Snow,300,2013-02-24 00:10:00
5:17 PM,28.4,26.6,93,29.70,1.8,WNW,11.5,-,0.00,Snow,Light Snow,300,2013-02-24 00:17:00
5:24 PM,30.2,26.6,86,29.70,2.0,WNW,13.8,-,0.00,Snow,Light Snow,290,2013-02-24 00:24:00
5:34 PM,30.2,26.6,86,29.70,5.0,WNW,19.6,26.5,0.00,Snow,Light Snow,300,2013-02-24 00:34:00
5:53 PM,30.9,26.1,82,29.83,10.0,NW,20.7,-,0.00,,Overcast,320,2013-02-24 00:53:00
6:53 PM,30.0,25.0,82,29.86,10.0,NW,24.2,31.1,N/A,,Overcast,320,2013-02-24 01:53:00
7:53 PM,30.0,21.9,72,29.88,9.0,NNW,28.8,43.7,N/A,,Overcast,330,2013-02-24 02:53:00
8:53 PM,30.9,19.9,64,29.90,7.0,NNW,38.0,52.9,0.00,,Overcast,340,2013-02-24 03:53:00
9:53 PM,30.9,18.0,59,29.94,10.0,NNW,34.5,43.7,0.00,,Overcast,340,2013-02-24 04:53:00
10:53 PM,30.0,19.0,64,29.96,10.0,NNW,23.0,34.5,N/A,,Overcast,330,2013-02-24 05:53:00
11:53 PM,30.0,19.0,64,29.97,10.0,NNW,29.9,39.1,N/A,,Overcast,330,2013-02-24 06:53:00